| time (UTC) | temp F | wind direction | speed MPH | gust MPH | rain 1hr in | rain 24hr in | rain mn in | humidity % | barometer mb |
| 20260503203535 | 61 | 229 | 4.0 | 6.0 | 0.00 | 0.00 | 0.00 | 31 | 1014.9 |
| 20260503203032 | 61 | 328 | 3.0 | 4.0 | 0.00 | 0.00 | 0.00 | 34 | 1015.2 |
| 20260503202530 | 62 | 28 | 2.0 | 9.0 | 0.00 | 0.00 | 0.00 | 30 | 1015.2 |
| 20260503202027 | 62 | 257 | 5.0 | 7.0 | 0.00 | 0.00 | 0.00 | 31 | 1015.2 |
| 20260503201520 | 60 | 214 | 1.0 | 11.0 | 0.00 | 0.00 | 0.00 | 34 | 1015.2 |
| 20260503201017 | 62 | 274 | 2.0 | 7.0 | 0.00 | 0.00 | 0.00 | 31 | 1015.3 |
| 20260503200513 | 62 | 209 | 2.0 | 8.0 | 0.00 | 0.00 | 0.00 | 33 | 1015.4 |
| 20260503200009 | 60 | 287 | 2.0 | 8.0 | 0.00 | 0.00 | 0.00 | 33 | 1015.5 |
| 20260503195506 | 61 | 293 | 4.0 | 6.0 | 0.00 | 0.00 | 0.00 | 33 | 1015.5 |
| 20260503195002 | 62 | 35 | 4.0 | 8.0 | 0.00 | 0.00 | 0.00 | 32 | 1015.5 |
| 20260503194500 | 61 | 235 | 6.0 | 7.0 | 0.00 | 0.00 | 0.00 | 29 | 1015.7 |
| 20260503193955 | 62 | 234 | 3.0 | 6.0 | 0.00 | 0.00 | 0.00 | 33 | 1015.6 |
| 20260503193451 | 60 | 268 | 2.0 | 6.0 | 0.00 | 0.00 | 0.00 | 32 | 1015.8 |
| 20260503192947 | 59 | 186 | 3.0 | 14.0 | 0.00 | 0.00 | 0.00 | 35 | 1015.9 |
| 20260503192444 | 59 | 316 | 3.0 | 11.0 | 0.00 | 0.00 | 0.00 | 38 | 1015.8 |
| 20260503191939 | 60 | 90 | 1.0 | 11.0 | 0.00 | 0.00 | 0.00 | 33 | 1016.0 |
| 20260503191437 | 61 | 68 | 4.0 | 7.0 | 0.00 | 0.00 | 0.00 | 33 | 1015.8 |
| 20260503190933 | 61 | 215 | 6.0 | 8.0 | 0.00 | 0.00 | 0.00 | 30 | 1015.9 |
| 20260503190431 | 60 | 280 | 3.0 | 10.0 | 0.00 | 0.00 | 0.00 | 33 | 1015.9 |
| 20260503185927 | 60 | 90 | 3.0 | 8.0 | 0.00 | 0.00 | 0.00 | 35 | 1016.1 |
| 20260503185424 | 58 | 194 | 2.0 | 4.0 | 0.00 | 0.00 | 0.00 | 34 | 1016.1 |
| 20260503184923 | 59 | 281 | 6.0 | 10.0 | 0.00 | 0.00 | 0.00 | 30 | 1016.2 |
| 20260503184420 | 58 | 254 | 4.0 | 8.0 | 0.00 | 0.00 | 0.00 | 32 | 1016.3 |
| 20260503183916 | 57 | 325 | 5.0 | 11.0 | 0.00 | 0.00 | 0.00 | 32 | 1016.3 |
| 20260503183413 | 58 | 321 | 6.0 | 10.0 | 0.00 | 0.00 | 0.00 | 35 | 1016.6 |
| 20260503182910 | 58 | 315 | 6.0 | 9.0 | 0.00 | 0.00 | 0.00 | 32 | 1016.5 |
| 20260503182409 | 56 | 290 | 6.0 | 8.0 | 0.00 | 0.00 | 0.00 | 32 | 1016.5 |
| 20260503181906 | 57 | 263 | 6.0 | 13.0 | 0.00 | 0.00 | 0.00 | 34 | 1016.5 |
| 20260503181402 | 57 | 261 | 5.0 | 13.0 | 0.00 | 0.00 | 0.00 | 36 | 1016.4 |
| 20260503180859 | 57 | 323 | 3.0 | 4.0 | 0.00 | 0.00 | 0.00 | 33 | 1016.5 |
| 20260503180357 | 56 | 351 | 8.0 | 9.0 | 0.00 | 0.00 | 0.00 | 37 | 1016.4 |
| 20260503175853 | 57 | 5 | 2.0 | 10.0 | 0.00 | 0.00 | 0.00 | 34 | 1016.5 |
| 20260503175352 | 58 | 260 | 3.0 | 13.0 | 0.00 | 0.00 | 0.00 | 32 | 1016.5 |
| 20260503174847 | 56 | 279 | 3.0 | 7.0 | 0.00 | 0.00 | 0.00 | 32 | 1016.8 |
| 20260503174345 | 58 | 259 | 4.0 | 8.0 | 0.00 | 0.00 | 0.00 | 34 | 1016.7 |
| 20260503173845 | 58 | 214 | 3.0 | 10.0 | 0.00 | 0.00 | 0.00 | 35 | 1016.6 |
| 20260503173342 | 56 | 269 | 3.0 | 11.0 | 0.00 | 0.00 | 0.00 | 36 | 1016.7 |
| 20260503172838 | 56 | 225 | 4.0 | 9.0 | 0.00 | 0.00 | 0.00 | 35 | 1017.1 |
| 20260503172336 | 55 | 224 | 4.0 | 9.0 | 0.00 | 0.00 | 0.00 | 34 | 1017.1 |
| 20260503171832 | 56 | 238 | 3.0 | 9.0 | 0.00 | 0.00 | 0.00 | 35 | 1016.9 |
| 20260503171329 | 56 | 252 | 4.0 | 7.0 | 0.00 | 0.00 | 0.00 | 36 | 1016.9 |
| 20260503170826 | 57 | 246 | 3.0 | 7.0 | 0.00 | 0.00 | 0.00 | 35 | 1017.2 |
| 20260503170323 | 55 | 351 | 1.0 | 7.0 | 0.00 | 0.00 | 0.00 | 42 | 1017.2 |
| 20260503150715 | 52 | 261 | 3.0 | 7.0 | 0.00 | 0.00 | 0.00 | 44 | 1018.3 |
| 20260503150211 | 51 | 222 | 5.0 | 9.0 | 0.00 | 0.00 | 0.00 | 47 | 1018.3 |
| 20260503140136 | 47 | 296 | 4.0 | 8.0 | 0.00 | 0.00 | 0.00 | 52 | 1018.3 |
| 20260503131105 | 46 | 234 | 1.0 | 3.0 | 0.00 | 0.00 | 0.00 | 58 | 1018.6 |
| 20260503130603 | 46 | 213 | 3.0 | 4.0 | 0.00 | 0.00 | 0.00 | 58 | 1018.4 |
| 20260503110453 | 34 | 118 | 0.0 | 0.0 | 0.00 | 0.00 | 0.00 | 83 | 1017.5 |
| 20260503090338 | 37 | 230 | 0.0 | 0.0 | 0.00 | 0.00 | 0.00 | 75 | 1016.2 |
| 20260503081306 | 39 | 241 | 2.0 | 2.0 | 0.00 | 0.00 | 0.00 | 73 | 1016.0 |
| 20260503080802 | 39 | 261 | 0.0 | 1.0 | 0.00 | 0.00 | 0.00 | 74 | 1016.1 |
| 20260503080259 | 38 | 267 | 1.0 | 2.0 | 0.00 | 0.00 | 0.00 | 73 | 1016.1 |
| 20260503072736 | 40 | 212 | 1.0 | 3.0 | 0.00 | 0.00 | 0.00 | 71 | 1016.0 |
| 20260503072232 | 40 | 230 | 1.0 | 3.0 | 0.00 | 0.00 | 0.00 | 72 | 1015.9 |
| 20260503071729 | 40 | 236 | 2.0 | 4.0 | 0.00 | 0.00 | 0.00 | 71 | 1015.7 |
| 20260503071226 | 40 | 279 | 3.0 | 3.0 | 0.00 | 0.00 | 0.00 | 72 | 1015.8 |
| 20260503070722 | 40 | 195 | 1.0 | 2.0 | 0.00 | 0.00 | 0.00 | 72 | 1015.8 |
| 20260503070220 | 39 | 229 | 1.0 | 2.0 | 0.00 | 0.00 | 0.00 | 76 | 1015.7 |
| 20260503060145 | 39 | 241 | 0.0 | 2.0 | 0.00 | 0.00 | 0.00 | 76 | 1015.6 |
| 20260503054632 | 38 | 298 | 0.0 | 0.0 | 0.00 | 0.00 | 0.00 | 77 | 1015.7 |
| 20260503054129 | 38 | 298 | 1.0 | 2.0 | 0.00 | 0.00 | 0.00 | 76 | 1015.6 |
| 20260503053627 | 38 | 285 | 0.0 | 0.0 | 0.00 | 0.00 | 0.00 | 76 | 1015.5 |
| 20260503053125 | 39 | 285 | 0.0 | 0.0 | 0.00 | 0.00 | 0.00 | 74 | 1015.8 |
| 20260503052621 | 39 | 283 | 0.0 | 1.0 | 0.00 | 0.00 | 0.00 | 75 | 1015.7 |
| 20260503052118 | 38 | 286 | 0.0 | 2.0 | 0.00 | 0.00 | 0.00 | 76 | 1015.8 |
| 20260503051613 | 39 | 271 | 0.0 | 1.0 | 0.00 | 0.00 | 0.00 | 75 | 1015.7 |
| 20260503051111 | 39 | 227 | 1.0 | 1.0 | 0.00 | 0.00 | 0.00 | 75 | 1015.8 |
| 20260503050607 | 39 | 288 | 0.0 | 2.0 | 0.00 | 0.00 | 0.00 | 74 | 1015.7 |
| 20260503050105 | 39 | 244 | 0.0 | 2.0 | 0.00 | 0.00 | 0.00 | 74 | 1015.5 |
| 20260503045601 | 39 | 210 | 0.0 | 0.0 | 0.00 | 0.00 | 0.00 | 74 | 1015.7 |
| 20260503045059 | 40 | 171 | 0.0 | 0.0 | 0.00 | 0.00 | 0.00 | 73 | 1015.8 |
| 20260503044555 | 39 | 257 | 0.0 | 2.0 | 0.00 | 0.00 | 0.00 | 73 | 1015.8 |
| 20260503044053 | 40 | 242 | 0.0 | 1.0 | 0.00 | 0.00 | 0.00 | 72 | 1015.9 |
| 20260503043549 | 40 | 235 | 0.0 | 1.0 | 0.00 | 0.00 | 0.00 | 72 | 1015.8 |
| 20260503043046 | 40 | 186 | 1.0 | 2.0 | 0.00 | 0.00 | 0.00 | 71 | 1015.8 |
| 20260503042543 | 40 | 231 | 0.0 | 0.0 | 0.00 | 0.00 | 0.00 | 71 | 1015.8 |
| 20260503042038 | 40 | 234 | 0.0 | 0.0 | 0.00 | 0.00 | 0.00 | 71 | 1016.0 |
| 20260503041536 | 40 | 240 | 1.0 | 3.0 | 0.00 | 0.00 | 0.00 | 69 | 1015.9 |
| 20260503041033 | 40 | 238 | 2.0 | 4.0 | 0.00 | 0.00 | 0.00 | 71 | 1015.9 |
| 20260503040530 | 40 | 252 | 0.0 | 1.0 | 0.00 | 0.00 | 0.00 | 71 | 1016.0 |
| 20260503040028 | 40 | 257 | 0.0 | 2.0 | 0.00 | 0.00 | 0.00 | 72 | 1015.8 |
| 20260503035524 | 41 | 230 | 0.0 | 0.0 | 0.00 | 0.00 | 0.00 | 70 | 1015.9 |
| 20260503035022 | 41 | 234 | 0.0 | 2.0 | 0.00 | 0.00 | 0.00 | 69 | 1015.7 |
| 20260503034519 | 41 | 262 | 1.0 | 1.0 | 0.00 | 0.00 | 0.00 | 69 | 1015.9 |
| 20260503034016 | 42 | 262 | 0.0 | 1.0 | 0.00 | 0.00 | 0.00 | 68 | 1015.8 |
| 20260503033513 | 42 | 250 | 1.0 | 2.0 | 0.00 | 0.00 | 0.00 | 68 | 1015.8 |
| 20260503033011 | 41 | 252 | 1.0 | 2.0 | 0.00 | 0.00 | 0.00 | 68 | 1015.8 |
| 20260503032509 | 42 | 253 | 0.0 | 0.0 | 0.00 | 0.00 | 0.00 | 67 | 1015.8 |
| 20260503032007 | 42 | 251 | 0.0 | 2.0 | 0.00 | 0.00 | 0.00 | 67 | 1015.9 |
| 20260503031505 | 42 | 262 | 0.0 | 1.0 | 0.00 | 0.00 | 0.00 | 65 | 1015.7 |
| 20260503031001 | 42 | 294 | 2.0 | 2.0 | 0.00 | 0.00 | 0.00 | 65 | 1016.0 |
| 20260503030457 | 43 | 274 | 2.0 | 3.0 | 0.00 | 0.00 | 0.00 | 63 | 1015.9 |
| 20260503025954 | 43 | 281 | 0.0 | 1.0 | 0.00 | 0.00 | 0.00 | 63 | 1015.9 |
| 20260503025451 | 43 | 301 | 3.0 | 3.0 | 0.00 | 0.00 | 0.00 | 63 | 1015.9 |
| 20260503024949 | 43 | 279 | 4.0 | 7.0 | 0.00 | 0.00 | 0.00 | 63 | 1016.0 |
| 20260503024445 | 43 | 208 | 2.0 | 3.0 | 0.00 | 0.00 | 0.00 | 62 | 1015.9 |
| 20260503023942 | 44 | 303 | 1.0 | 2.0 | 0.00 | 0.00 | 0.00 | 61 | 1016.2 |
| 20260503023439 | 44 | 268 | 2.0 | 9.0 | 0.00 | 0.00 | 0.00 | 60 | 1016.2 |
| 20260503022936 | 44 | 290 | 3.0 | 7.0 | 0.00 | 0.00 | 0.00 | 59 | 1016.0 |
| 20260503022431 | 44 | 283 | 7.0 | 10.0 | 0.00 | 0.00 | 0.00 | 59 | 1016.1 |
| 20260503021927 | 45 | 273 | 2.0 | 4.0 | 0.00 | 0.00 | 0.00 | 60 | 1016.0 |
| 20260503021423 | 45 | 251 | 7.0 | 14.0 | 0.00 | 0.00 | 0.00 | 60 | 1015.9 |
| 20260503020921 | 44 | 287 | 1.0 | 4.0 | 0.00 | 0.00 | 0.00 | 61 | 1015.8 |
| 20260503020419 | 45 | 304 | 5.0 | 6.0 | 0.00 | 0.00 | 0.00 | 59 | 1015.9 |
| 20260503015915 | 45 | 315 | 2.0 | 7.0 | 0.00 | 0.00 | 0.00 | 59 | 1016.0 |
| 20260503015412 | 46 | 292 | 2.0 | 6.0 | 0.00 | 0.00 | 0.00 | 58 | 1015.8 |
| 20260503014908 | 46 | 277 | 2.0 | 4.0 | 0.00 | 0.00 | 0.00 | 56 | 1015.7 |
| 20260503014405 | 46 | 274 | 2.0 | 2.0 | 0.00 | 0.00 | 0.00 | 57 | 1015.7 |
| 20260503013903 | 46 | 330 | 7.0 | 9.0 | 0.00 | 0.00 | 0.00 | 56 | 1015.9 |
| 20260503013400 | 46 | 255 | 2.0 | 9.0 | 0.00 | 0.00 | 0.00 | 56 | 1015.6 |
| 20260503012857 | 46 | 280 | 3.0 | 7.0 | 0.00 | 0.00 | 0.00 | 57 | 1015.5 |
| 20260503012355 | 46 | 271 | 4.0 | 8.0 | 0.00 | 0.00 | 0.00 | 56 | 1015.5 |
| 20260503011851 | 46 | 284 | 6.0 | 9.0 | 0.00 | 0.00 | 0.00 | 55 | 1015.6 |
| 20260503011348 | 46 | 296 | 4.0 | 8.0 | 0.00 | 0.00 | 0.00 | 56 | 1015.2 |
| 20260503010845 | 47 | 294 | 2.0 | 6.0 | 0.00 | 0.00 | 0.00 | 57 | 1015.1 |
| 20260503010342 | 47 | 270 | 1.0 | 2.0 | 0.00 | 0.00 | 0.00 | 55 | 1015.1 |
| 20260503005838 | 47 | 320 | 3.0 | 4.0 | 0.00 | 0.00 | 0.00 | 54 | 1015.2 |
| 20260503005336 | 47 | 266 | 1.0 | 3.0 | 0.00 | 0.00 | 0.00 | 56 | 1014.9 |
| 20260503004832 | 47 | 271 | 1.0 | 6.0 | 0.00 | 0.00 | 0.00 | 54 | 1014.7 |
| 20260503004330 | 47 | 277 | 4.0 | 4.0 | 0.00 | 0.00 | 0.00 | 54 | 1014.7 |
| 20260503003827 | 48 | 302 | 2.0 | 3.0 | 0.00 | 0.00 | 0.00 | 54 | 1014.6 |
| 20260503003324 | 48 | 307 | 4.0 | 7.0 | 0.00 | 0.00 | 0.00 | 53 | 1014.4 |
| 20260503002821 | 48 | 287 | 2.0 | 2.0 | 0.00 | 0.00 | 0.00 | 55 | 1014.7 |
| 20260503002318 | 48 | 291 | 3.0 | 4.0 | 0.00 | 0.00 | 0.00 | 53 | 1014.4 |
| 20260503001814 | 48 | 307 | 6.0 | 8.0 | 0.00 | 0.00 | 0.00 | 53 | 1014.5 |
| 20260503001311 | 48 | 290 | 2.0 | 3.0 | 0.00 | 0.00 | 0.00 | 52 | 1014.5 |
| 20260503000808 | 48 | 284 | 1.0 | 3.0 | 0.00 | 0.00 | 0.00 | 53 | 1014.2 |
| 20260503000306 | 49 | 322 | 3.0 | 3.0 | 0.00 | 0.00 | 0.00 | 52 | 1014.2 |
| 20260502235802 | 49 | 280 | 4.0 | 8.0 | 0.00 | 0.00 | 0.00 | 52 | 1014.2 |
| 20260502235300 | 49 | 302 | 4.0 | 7.0 | 0.00 | 0.00 | 0.00 | 52 | 1013.9 |
| 20260502234756 | 49 | 303 | 4.0 | 4.0 | 0.00 | 0.00 | 0.00 | 51 | 1013.8 |
| 20260502234253 | 49 | 330 | 5.0 | 7.0 | 0.00 | 0.00 | 0.00 | 51 | 1013.9 |
| 20260502233749 | 49 | 352 | 4.0 | 6.0 | 0.00 | 0.00 | 0.00 | 50 | 1013.9 |
| 20260502233246 | 49 | 256 | 3.0 | 6.0 | 0.00 | 0.00 | 0.00 | 50 | 1013.9 |
| 20260502232742 | 49 | 289 | 5.0 | 8.0 | 0.00 | 0.00 | 0.00 | 52 | 1013.7 |
| 20260502232239 | 49 | 306 | 4.0 | 9.0 | 0.00 | 0.00 | 0.00 | 51 | 1013.7 |
| 20260502231736 | 49 | 324 | 4.0 | 7.0 | 0.00 | 0.00 | 0.00 | 51 | 1013.9 |
| 20260502231234 | 49 | 289 | 2.0 | 6.0 | 0.00 | 0.00 | 0.00 | 51 | 1013.7 |
| 20260502230732 | 50 | 296 | 4.0 | 6.0 | 0.00 | 0.00 | 0.00 | 52 | 1013.7 |
| 20260502230230 | 50 | 325 | 4.0 | 8.0 | 0.00 | 0.00 | 0.00 | 52 | 1013.6 |
| 20260502225726 | 50 | 325 | 5.0 | 8.0 | 0.00 | 0.00 | 0.00 | 50 | 1013.7 |
| 20260502225223 | 50 | 281 | 4.0 | 8.0 | 0.00 | 0.00 | 0.00 | 51 | 1013.6 |
| 20260502224719 | 50 | 297 | 4.0 | 7.0 | 0.00 | 0.00 | 0.00 | 48 | 1013.6 |
| 20260502224216 | 51 | 274 | 3.0 | 4.0 | 0.00 | 0.00 | 0.00 | 50 | 1013.6 |
| 20260502223714 | 51 | 273 | 5.0 | 7.0 | 0.00 | 0.00 | 0.00 | 48 | 1013.5 |
| 20260502223212 | 51 | 306 | 2.0 | 3.0 | 0.00 | 0.00 | 0.00 | 47 | 1013.4 |
| 20260502222709 | 51 | 295 | 4.0 | 6.0 | 0.00 | 0.00 | 0.00 | 48 | 1013.6 |
| 20260502222206 | 52 | 283 | 7.0 | 10.0 | 0.00 | 0.00 | 0.00 | 46 | 1013.3 |
| 20260502221702 | 52 | 249 | 2.0 | 3.0 | 0.00 | 0.00 | 0.00 | 45 | 1013.2 |
| 20260502221159 | 52 | 272 | 2.0 | 4.0 | 0.00 | 0.00 | 0.00 | 46 | 1013.2 |
| 20260502220655 | 53 | 306 | 1.0 | 2.0 | 0.00 | 0.00 | 0.00 | 47 | 1013.1 |
| 20260502220151 | 52 | 280 | 0.0 | 3.0 | 0.00 | 0.00 | 0.00 | 44 | 1013.3 |
| 20260502215648 | 53 | 249 | 1.0 | 4.0 | 0.00 | 0.00 | 0.00 | 47 | 1013.3 |
| 20260502215145 | 53 | 267 | 1.0 | 4.0 | 0.00 | 0.00 | 0.00 | 44 | 1013.3 |
| 20260502214642 | 53 | 220 | 0.0 | 2.0 | 0.00 | 0.00 | 0.00 | 46 | 1013.2 |
| 20260502214139 | 53 | 207 | 2.0 | 7.0 | 0.00 | 0.00 | 0.00 | 43 | 1013.2 |
| 20260502213637 | 53 | 212 | 3.0 | 4.0 | 0.00 | 0.00 | 0.00 | 44 | 1013.4 |
| 20260502213134 | 53 | 216 | 1.0 | 2.0 | 0.00 | 0.00 | 0.00 | 47 | 1013.3 |
| 20260502212633 | 53 | 247 | 3.0 | 4.0 | 0.00 | 0.00 | 0.00 | 44 | 1013.3 |
| 20260502212125 | 54 | 304 | 1.0 | 2.0 | 0.00 | 0.00 | 0.00 | 47 | 1013.2 |
| 20260502211620 | 53 | 278 | 1.0 | 2.0 | 0.00 | 0.00 | 0.00 | 45 | 1013.2 |
| 20260502211117 | 53 | 270 | 2.0 | 8.0 | 0.00 | 0.00 | 0.00 | 47 | 1013.1 |
| 20260502210615 | 53 | 311 | 1.0 | 4.0 | 0.00 | 0.00 | 0.00 | 43 | 1013.1 |
| 20260502210111 | 53 | 256 | 2.0 | 4.0 | 0.00 | 0.00 | 0.00 | 42 | 1013.1 |
| 20260502205608 | 53 | 266 | 2.0 | 4.0 | 0.00 | 0.00 | 0.00 | 46 | 1013.2 |
| 20260502205105 | 52 | 300 | 3.0 | 4.0 | 0.00 | 0.00 | 0.00 | 49 | 1013.2 |
| 20260502204601 | 52 | 290 | 6.0 | 9.0 | 0.00 | 0.00 | 0.00 | 44 | 1013.2 |
| 20260502204059 | 52 | 344 | 3.0 | 4.0 | 0.00 | 0.00 | 0.00 | 46 | 1013.1 |